Weather History for Anoka County, MN

Change the Weather History Date:

Tuesday, August 21, 2012

  Actual Average Record
Temperature  
Mean Temperature 65 °F -  
Max Temperature 80 °F 76 °F 87 °F (2013)
Min Temperature 50 °F 57 °F 39 °F (2004)
Growing Degree Days 15 (Base 50)    
Moisture  
Dew Point 50 °F    
Average Humidity 72    
Maximum Humidity 100    
Minimum Humidity 30    
Precipitation  
Precipitation 0.00 in - - ()
Sea Level Pressure  
Sea Level Pressure 30.03 in    
Wind  
Wind Speed 1 mph (SSW)    
Max Wind Speed 10 mph    
Max Gust Speed -    
Visibility 10 miles    
Events      
Averages and records for this station are not official NWS values.
T = Trace of Precipitation, MM = Missing Value Source: NWS Daily Summary

Daily Weather History Graph

Daily Weather History Graph

Search for Another Location

Airport:

Trip Planner

Search our weather history database for the weather conditions in past years. The results will help you decide how hot, cold, wet, or windy it might be!

Date:

Astronomy

Aug. 21, 2012 Rise Set
Actual Time 6:22 AM CDT 8:08 PM CDT
Civil Twilight 5:50 AM CDT 8:39 PM CDT
Nautical Twilight 5:12 AM CDT 9:18 PM CDT
Astronomical Twilight 4:30 AM CDT 9:59 PM CDT
Moon 11:09 AM CDT (8/21) 9:51 PM CDT (8/21)
Length of Visible Light 14h 49m
Length of Day
13h 46m
Waxing Crescent, 19% of the Moon is Illuminated
Aug 21
Waxing Crescent
Aug 24
First Quarter
Aug 31
Full
Sep 8
Last Quarter
Sep 15
New

Hourly Weather History & Observations

Time (CDT) Temp. Dew Point Humidity Pressure Visibility Wind Dir Wind Speed Gust Speed Precip Events Conditions
12:13 AM 55.4 °F 51.8 °F 88% 30.03 in 10.0 mi Calm Calm - N/A   Clear
12:34 AM 55.4 °F 51.8 °F 88% 30.03 in 10.0 mi Calm Calm - N/A   Clear
12:54 AM 53.6 °F 51.8 °F 94% 30.04 in 10.0 mi Calm Calm - N/A   Clear
1:14 AM 55.4 °F 51.8 °F 88% 30.04 in 10.0 mi Calm Calm - N/A   Clear
1:34 AM 53.6 °F 50.0 °F 88% 30.04 in 10.0 mi Calm Calm - N/A   Clear
1:54 AM 53.6 °F 50.0 °F 88% 30.04 in 10.0 mi Calm Calm - N/A   Clear
2:14 AM 53.6 °F 51.8 °F 94% 30.04 in 10.0 mi Calm Calm - N/A   Clear
2:34 AM 53.6 °F 51.8 °F 94% 30.04 in 10.0 mi Calm Calm - N/A   Clear
2:54 AM 53.6 °F 51.8 °F 94% 30.04 in 10.0 mi Calm Calm - N/A   Clear
3:14 AM 53.6 °F 51.8 °F 94% 30.04 in 10.0 mi Calm Calm - N/A   Clear
3:34 AM 51.8 °F 48.2 °F 88% 30.04 in 10.0 mi Calm Calm - N/A   Clear
3:54 AM 51.8 °F 50.0 °F 94% 30.04 in 10.0 mi Calm Calm - N/A   Clear
4:14 AM 51.8 °F 51.8 °F 100% 30.04 in 7.0 mi Calm Calm - N/A   Clear
4:34 AM 50.0 °F 48.2 °F 94% 30.04 in 10.0 mi Calm Calm - N/A   Clear
4:54 AM 51.8 °F 50.0 °F 94% 30.04 in 10.0 mi Calm Calm - N/A   Clear
5:14 AM 51.8 °F 48.2 °F 88% 30.04 in 10.0 mi Calm Calm - N/A   Clear
5:34 AM 51.8 °F 48.2 °F 88% 30.04 in 7.0 mi Calm Calm - N/A   Clear
5:54 AM 51.8 °F 50.0 °F 94% 30.05 in 10.0 mi Calm Calm - N/A   Clear
6:14 AM 51.8 °F 48.2 °F 88% 30.05 in 10.0 mi Calm Calm - N/A   Clear
6:34 AM 51.8 °F 50.0 °F 94% 30.06 in 5.0 mi Calm Calm - N/A   Clear
6:50 AM 51.8 °F 48.2 °F 88% 30.06 in 10.0 mi Calm Calm - N/A   Clear
6:54 AM 51.8 °F 48.2 °F 88% 30.06 in 10.0 mi Calm Calm - N/A   Clear
7:45 AM 51.8 °F 48.2 °F 88% 30.08 in 10.0 mi Calm Calm - N/A   Clear
8:45 AM 64.4 °F 51.8 °F 64% 30.08 in 10.0 mi Variable 3.5 mph - N/A   Clear
10:45 AM 73.4 °F 48.2 °F 41% 30.08 in 10.0 mi SW 6.9 mph - N/A   Clear
11:45 AM 75.2 °F 48.2 °F 38% 30.08 in 10.0 mi SW 4.6 mph - N/A   Clear
12:45 PM 77.0 °F 46.4 °F 34% 30.07 in 10.0 mi South 10.4 mph - N/A   Clear
1:45 PM 78.8 °F 46.4 °F 32% 30.06 in 10.0 mi SSW 5.8 mph - N/A   Clear
2:55 PM 78.8 °F 46.4 °F 32% 30.04 in 10.0 mi SSW 5.8 mph - N/A   Clear
3:55 PM 80.6 °F 46.4 °F 30% 30.03 in 10.0 mi South 8.1 mph - N/A   Clear
4:45 PM 80.6 °F 46.4 °F 30% 30.02 in 10.0 mi SW 5.8 mph - N/A   Clear
5:45 PM 80.6 °F 46.4 °F 30% 30.02 in 10.0 mi SW 5.8 mph - N/A   Clear
6:45 PM 78.8 °F 46.4 °F 32% 30.01 in 10.0 mi SW 5.8 mph - N/A   Clear
7:45 PM 73.4 °F 51.8 °F 47% 30.00 in 10.0 mi South 3.5 mph - N/A   Clear
8:45 PM 69.8 °F 51.8 °F 53% 30.00 in 10.0 mi South 3.5 mph - N/A   Clear
9:14 PM 66.2 °F 53.6 °F 64% 30.00 in 10.0 mi Calm Calm - N/A   Clear
9:34 PM 66.2 °F 53.6 °F 64% 30.00 in 10.0 mi Calm Calm - N/A   Clear
9:45 PM 64.4 °F 53.6 °F 68% 30.00 in 10.0 mi Calm Calm - N/A   Clear
9:54 PM 64.4 °F 53.6 °F 68% 30.00 in 10.0 mi Calm Calm - N/A   Clear
10:14 PM 64.4 °F 53.6 °F 68% 30.00 in 10.0 mi Calm Calm - N/A   Clear
10:34 PM 62.6 °F 53.6 °F 72% 30.00 in 10.0 mi Calm Calm - N/A   Clear
10:54 PM 62.6 °F 53.6 °F 72% 30.00 in 10.0 mi Calm Calm - N/A   Clear
11:14 PM 60.8 °F 53.6 °F 77% 30.00 in 10.0 mi Calm Calm - N/A   Clear
11:34 PM 62.6 °F 53.6 °F 72% 29.99 in 10.0 mi SSE 3.5 mph - N/A   Clear
11:54 PM 64.4 °F 53.6 °F 68% 29.99 in 10.0 mi SSE 3.5 mph - N/A   Clear